User: anonymous   Login
Location: Caltech
(34.1382°N, 118.1253°W)
Time: 00:47:11
(UTC-07:00)
Language:

IRS-1A Rocket - Orbit

View from above orbital plane
View from above orbital plane
View from above satellite
View from above satellite

Ground track
Ground track

The orbit data is extracted from the following two-line orbital elements,

1 18961U 88021B   14297.49352716 -.00000113  00000-0 -44181-4 0  7687
2 18961 099.2843 273.0113 0054198 357.7622 109.2986 14.00696688360099
Epoch (UTC): 24 October 2014 11:50:40
Eccentricity: 0.0054198
inclination: 99.2843°
perigee height: 852 km
apogee height: 931 km
right ascension of ascending node: 273.0113°
argument of perigee: 357.7622°
revolutions per day: 14.00696688
mean anomaly at epoch: 109.2986°
orbit number at epoch: 36009

The dashed part of the orbit path shows where the satellite is in the earth's shadow,  

DLR